[[{"header":{"parameterUnit":"m.s-1","parameterCategory":2,"la1":30.2991,"la2":30.254,"lo1":-89.0895,"lo2":-89.0444,"dy":0.0017,"dx":0.0017,"nx":28,"ny":28,"refTime":"2023-09-13T21:00:00:Z","depth":"0","parameterNumber":2,"parameterNumberName":"U-component_of_CURRENTS"},"data":[0,0,0,0,0,0,0,0,0,0,0,0,0,0,0,0,0,0,0,0,0,0,0,0,0,0,0,0,0,0,0,0,0,0,0,0,0,0,0,0,0,0,0,0,0,0,0,0,0,0,0,0,0,0,0,0,0,0,0.2443,0.2443,0,0.2402,0.2401,0.24,0.2365,0.2365,0.2365,0.2365,0.2271,0.2269,0.2267,0,0,0,0,0,0,0,0,0,0,0,0,0,0.2457,0.2457,0.2443,0.2443,0.2443,0.2402,0.2401,0.24,0.2365,0.2365,0.2365,0.2365,0.2272,0.2269,0.2266,0,0,0,0,0,0,0,0,0,0,0,0,0,0.2433,0.2457,0.2443,0.2423,0.2421,0.2402,0.2401,0.24,0.2365,0.2365,0.2365,0.2365,0.2273,0.227,0.2266,0.2244,0,0,0.2255,0.2253,0,0,0,0,0,0,0,0,0.2435,0.2432,0.2426,0.2425,0.2423,0.2392,0.2372,0.2346,0.2365,0.2382,0.2365,0.2365,0.2309,0.2303,0.229,0.224,0.2236,0.2254,0.2252,0.2251,0.225,0,0,0,0,0,0,0,0.2437,0.2434,0.2423,0.2426,0.2424,0.2405,0.2401,0.2367,0.2343,0.2381,0.2379,0.2381,0.2307,0.2294,0.2288,0.2234,0.2255,0.2251,0.2249,0.2248,0.2141,0.214,0,0,0,0,0,0,0.2451,0.2436,0.2424,0.2422,0.2433,0.2405,0.2401,0.2399,0.2344,0.2337,0.2381,0.2379,0.23,0.2292,0.2284,0.2232,0.2251,0.2247,0.2245,0.2142,0.2141,0.214,0,0,0,0,0,0,0.2452,0.2451,0.2426,0.2431,0.2427,0.2406,0.2403,0.2398,0.2385,0.2346,0.2337,0.2374,0.23,0.229,0.2249,0.2229,0.2245,0.2242,0.2142,0.2141,0.214,0.2142,0,0,0,0,0,0,0.2452,0.2451,0.245,0.2432,0.2428,0.2409,0.2403,0.2397,0.2388,0.2386,0.2337,0.2328,0.2299,0.2254,0.2245,0.2224,0.2239,0.2143,0.2142,0.2141,0.2142,0.2141,0.214,0,0,0,0,0,0.2453,0.2451,0.245,0.2449,0.2429,0.2409,0.2404,0.2386,0.2388,0.2376,0.2346,0.2329,0.224,0.2251,0.224,0.2218,0.2144,0.2142,0.2141,0.2143,0.2141,0.214,0,0,0,0,0,0,0.2453,0.2448,0.2446,0.2442,0.2426,0.2405,0.2396,0.2389,0.2357,0.2355,0.232,0.2308,0.2269,0.2244,0.2257,0.2184,0.219,0.2186,0.2195,0.2193,0.2192,0.2269,0.2236,0,0,0,0,0,0.2457,0.2455,0.2443,0.2439,0.2434,0.2417,0.2408,0.2397,0.2372,0.2358,0.2325,0.2289,0.2254,0.2226,0.2195,0.215,0.2215,0.213,0.2128,0.2127,0.2183,0.231,0.2327,0.2136,0.2136,0.2136,0,0,0.2458,0.2454,0.2453,0.2439,0.2427,0.2408,0.241,0.2396,0.2377,0.2352,0.2311,0.2287,0.2245,0.2199,0.2177,0.2172,0.2196,0.2125,0.2125,0.2183,0.2311,0.233,0.2348,0.2135,0.2135,0.2135,0,0,0.2452,0.2454,0.2446,0.2434,0.242,0.2406,0.2405,0.2381,0.2368,0.233,0.2311,0.23,0.2217,0.2206,0.2184,0.2163,0.2195,0.2118,0.2161,0.2281,0.23,0.2318,0.2352,0.2373,0.2106,0.2106,0.2106,0,0.2451,0.2442,0.2439,0.2424,0.2418,0.2405,0.2391,0.2369,0.2334,0.2337,0.2317,0.2279,0.2238,0.2223,0.2207,0.2165,0.2216,0.2165,0.2286,0.2305,0.2324,0.2356,0.238,0.2106,0.2106,0.2106,0.2106,0,0.2432,0.2427,0.2421,0.2399,0.2387,0.2376,0.2354,0.234,0.2328,0.2321,0.2319,0.2291,0.2286,0.2243,0.2212,0.2289,0.2273,0.2282,0.2304,0.2345,0.2372,0.2397,0.2106,0.2106,0.2106,0.2106,0,0,0.2424,0.2412,0.241,0.2405,0.238,0.2369,0.2346,0.2337,0.2351,0.2326,0.2365,0.2313,0.2344,0.2328,0.2297,0.2381,0.2508,0.2384,0.239,0.2441,0.2729,0.2633,0.265,0.255,0.2556,0.2561,0.2671,0,0.241,0.2392,0.2387,0.2366,0.2356,0.235,0.2336,0.233,0.2332,0.2361,0.2379,0.2391,0.2356,0.2364,0.245,0.2501,0.2586,0.2475,0.2665,0.267,0.2602,0.2682,0.2512,0.2593,0.2695,0.27,0.2703,0,0.2384,0.2381,0.2367,0.237,0.2367,0.2353,0.2366,0.2355,0.2392,0.2407,0.2459,0.2475,0.2554,0.2547,0.2712,0.2644,0.2711,0.2757,0.2763,0.2715,0.2625,0.2582,0.2634,0.2512,0.2741,0.2738,0.2735,0,0.2375,0.2366,0.2364,0.2359,0.2353,0.2358,0.2358,0.2376,0.2379,0.2463,0.249,0.2593,0.2637,0.2781,0.2826,0.2806,0.3024,0.3003,0.2978,0.2967,0.2888,0.2861,0.2881,0.3196,0.3196,0.3196,0.3195,0,0.2354,0.235,0.2365,0.2359,0.2362,0.2367,0.238,0.2398,0.2444,0.2465,0.253,0.2572,0.2717,0.2812,0.2893,0.2989,0.3081,0.3034,0.3028,0.2866,0.2838,0.2779,0.2719,0.32,0.3199,0.3198,0.3197,0,0.2324,0.2337,0.2334,0.2349,0.2352,0.2356,0.2364,0.2378,0.2427,0.2469,0.2499,0.259,0.2712,0.2809,0.3013,0.3036,0.3052,0.3171,0.2917,0.2882,0.2741,0.2685,0.2689,0.2621,0.3195,0.3194,0.3193,0,0.2296,0.2297,0.2318,0.2315,0.2318,0.2324,0.2323,0.2364,0.2376,0.2459,0.2481,0.2598,0.2649,0.2855,0.2947,0.3075,0.2995,0.2986,0.2945,0.275,0.2686,0.2584,0.252,0.2802,0.2797,0.2794,0.2791,0,0.2242,0.2263,0.2262,0.2264,0.2267,0.2261,0.2271,0.2279,0.2332,0.2358,0.2418,0.2474,0.2634,0.2677,0.2809,0.2874,0.2787,0.2922,0.2829,0.2492,0.2283,0.2203,0.2646,0.2762,0.2765,0.2767,0.2768,0.277,0.2192,0.2189,0.2197,0.2189,0.2192,0.2182,0.2151,0.2173,0.2175,0.2194,0.2315,0.2355,0.2427,0.2587,0.2627,0.2547,0.2606,0.2483,0.2461,0.2399,0.2255,0.2591,0.2631,0.2634,0.2635,0.2637,0.2638,0,0.2108,0.2114,0.2113,0.2094,0.2063,0.2096,0.2087,0.2042,0.2008,0.2091,0.2122,0.2149,0.2147,0.221,0.2168,0.2088,0.2036,0.2023,0.185,0.1839,0.2237,0.2138,0.1939,0.1939,0.194,0.194,0.194,0.194,0.206,0.2031,0.2038,0.1962,0.1948,0.187,0.185,0.181,0.1833,0.1797,0.1802,0.1863,0.1863,0.1781,0.1665,0.1655,0.1537,0.1446,0.1505,0.1754,0.1794,0.1833,0.1727,0.1446,0.1446,0.1015,0.1011,0.1008]},{"header":{"parameterUnit":"m.s-1","parameterCategory":2,"la1":30.2991,"la2":30.254,"lo1":-89.0895,"lo2":-89.0444,"dy":0.0017,"dx":0.0017,"nx":28,"ny":28,"refTime":"2023-09-13T21:00:00:Z","depth":"0","parameterNumber":3,"parameterNumberName":"V-component_of_CURRENTS"},"data":[0,0,0,0,0,0,0,0,0,0,0,0,0,0,0,0,0,0,0,0,0,0,0,0,0,0,0,0,0,0,0,0,0,0,0,0,0,0,0,0,0,0,0,0,0,0,0,0,0,0,0,0,0,0,0,0,0,0,0.0169,0.0169,0,0.0127,0.0127,0.0126,0.0099,0.0099,0.0099,0.0099,0.0018,0.0015,0.0013,0,0,0,0,0,0,0,0,0,0,0,0,0,0.0208,0.0207,0.017,0.0169,0.0169,0.0128,0.0127,0.0126,0.0099,0.0099,0.0099,0.0099,0.0018,0.0016,0.0013,0,0,0,0,0,0,0,0,0,0,0,0,0,0.0179,0.0207,0.017,0.0152,0.015,0.0128,0.0127,0.0126,0.0099,0.0099,0.0099,0.0099,0.0019,0.0016,0.0013,-0.0007,0,0,0.0003,0.0001,0,0,0,0,0,0,0,0,0.0181,0.0178,0.0155,0.0153,0.0151,0.012,0.011,0.008,0.0099,0.0117,0.0099,0.0099,0.0049,0.0043,0.0034,-0.001,-0.0014,0.0003,0.0001,-0.0001,-0.0002,0,0,0,0,0,0,0,0.0183,0.0179,0.0151,0.0154,0.0152,0.0139,0.0135,0.0104,0.0082,0.0115,0.0114,0.0111,0.0048,0.0037,0.0032,-0.0015,0.0003,-0.0,-0.0002,-0.0003,-0.0092,-0.0092,0,0,0,0,0,0,0.0192,0.0181,0.0153,0.015,0.0168,0.0139,0.0134,0.0129,0.0083,0.0077,0.0111,0.011,0.0043,0.0036,0.0029,0.0007,-0.0001,-0.0004,-0.0006,-0.0091,-0.0092,-0.0092,0,0,0,0,0,0,0.0193,0.019,0.0154,0.0166,0.0161,0.0138,0.0132,0.0128,0.0119,0.0081,0.0073,0.0108,0.0042,0.0033,-0.0002,0.0004,-0.0005,-0.0008,-0.0091,-0.0091,-0.0092,-0.0038,0,0,0,0,0,0,0.0194,0.019,0.0188,0.0167,0.0161,0.0144,0.0132,0.0127,0.0118,0.0116,0.0075,0.0067,0.0042,0.0003,-0.0005,-0.0001,-0.0011,-0.009,-0.0091,-0.0092,-0.0039,-0.0037,-0.0035,0,0,0,0,0,0.0196,0.0195,0.0188,0.0184,0.0158,0.0144,0.014,0.0123,0.0118,0.0114,0.0083,0.0069,-0.0007,0.0,-0.0009,-0.0006,-0.009,-0.0091,-0.0092,-0.0041,-0.0037,-0.0035,0,0,0,0,0,0,0.0205,0.0192,0.0183,0.0177,0.0163,0.014,0.0136,0.0126,0.0099,0.0096,0.0061,0.0051,0.0022,-0.0004,0.0006,-0.0035,-0.005,-0.0053,-0.0008,-0.0005,-0.0003,0.0052,-0.0013,0,0,0,0,0,0.0207,0.0207,0.0188,0.0183,0.0178,0.0158,0.015,0.0139,0.0115,0.0104,0.0073,0.0039,0.001,-0.0006,-0.004,-0.0062,-0.0023,-0.0067,-0.0064,-0.0062,-0.0025,0.0076,0.0093,-0.0095,-0.0095,-0.0095,0,0,0.0211,0.0203,0.0203,0.0186,0.0174,0.0165,0.0153,0.0144,0.0136,0.0098,0.0073,0.0044,0.0004,-0.0021,-0.0036,-0.004,-0.0003,-0.0063,-0.006,-0.0024,0.0077,0.0096,0.0113,-0.0096,-0.0096,-0.0096,0,0,0.0222,0.0209,0.0214,0.0203,0.0189,0.0175,0.0175,0.0151,0.014,0.0112,0.0086,0.0075,0.0009,0.0004,-0.0012,-0.0015,0.0005,-0.0046,0.0016,0.0113,0.0131,0.0148,0.0172,0.0191,-0.0041,-0.0041,-0.0041,0,0.0226,0.0227,0.0212,0.021,0.0206,0.0181,0.0182,0.0164,0.0131,0.0139,0.0108,0.0079,0.0033,0.0048,0.0035,-0.0003,0.0035,0.001,0.0123,0.0141,0.0157,0.0179,0.0199,-0.0038,-0.0039,-0.0039,-0.0039,0,0.0239,0.0236,0.0238,0.0228,0.0219,0.0216,0.0193,0.0186,0.0168,0.0162,0.017,0.0131,0.0133,0.0098,0.0057,0.0136,0.0117,0.0117,0.0131,0.0181,0.0197,0.0218,-0.0035,-0.0036,-0.0036,-0.0037,0,0,0.0259,0.0251,0.0251,0.0256,0.0231,0.023,0.0222,0.0227,0.0258,0.0224,0.0284,0.0221,0.0236,0.0221,0.0189,0.0253,0.0357,0.0234,0.0238,0.0284,0.0538,0.0454,0.0467,0.0396,0.04,0.0404,0.0487,0,0.0275,0.0286,0.0274,0.028,0.0283,0.0267,0.0271,0.0273,0.0278,0.0325,0.0324,0.035,0.0271,0.0293,0.0346,0.037,0.0422,0.0333,0.0462,0.0465,0.0408,0.0493,0.046,0.0529,0.0507,0.051,0.0513,0,0.0292,0.0298,0.0314,0.0326,0.0329,0.0331,0.037,0.0371,0.0422,0.044,0.049,0.0494,0.0558,0.0501,0.0602,0.0555,0.0555,0.0565,0.0569,0.0501,0.0421,0.0482,0.0566,0.0456,0.0544,0.0541,0.0539,0,0.0323,0.0328,0.035,0.0347,0.0353,0.0372,0.0379,0.0415,0.045,0.054,0.0604,0.0667,0.0725,0.0772,0.0742,0.0706,0.0862,0.0817,0.0734,0.0724,0.0729,0.0713,0.0755,0.0918,0.0918,0.0918,0.0917,0,0.0347,0.0361,0.0371,0.038,0.0419,0.0412,0.0476,0.0498,0.0577,0.0659,0.068,0.0776,0.081,0.0871,0.0837,0.0846,0.094,0.078,0.0772,0.0733,0.0717,0.0644,0.0589,0.0921,0.092,0.0919,0.0919,0,0.0373,0.0379,0.0402,0.0422,0.0433,0.0462,0.0517,0.058,0.0642,0.0767,0.0809,0.0903,0.0987,0.0973,0.1049,0.0963,0.0923,0.0943,0.0849,0.0828,0.0621,0.057,0.066,0.0624,0.0893,0.0892,0.0891,0,0.039,0.0404,0.0433,0.0457,0.0468,0.0511,0.0557,0.0609,0.0686,0.0841,0.0923,0.103,0.1115,0.1154,0.1061,0.1008,0.0916,0.0891,0.0814,0.0639,0.0579,0.0558,0.0519,0.082,0.0819,0.0817,0.0816,0,0.0411,0.0423,0.0444,0.0494,0.054,0.0598,0.0669,0.074,0.0834,0.0949,0.1113,0.1195,0.1213,0.1173,0.1052,0.0983,0.0812,0.086,0.0761,0.0603,0.0516,0.0464,0.0672,0.0806,0.0807,0.0808,0.0808,0.0809,0.043,0.0447,0.048,0.0532,0.0592,0.0686,0.0752,0.0855,0.0987,0.1163,0.123,0.1367,0.1243,0.1097,0.0978,0.0696,0.0742,0.0592,0.0564,0.0574,0.0492,0.0626,0.0692,0.0692,0.0692,0.0693,0.0693,0,0.0444,0.0467,0.0516,0.0586,0.0666,0.0694,0.0831,0.0919,0.1084,0.1238,0.1371,0.138,0.1199,0.0994,0.0635,0.0438,0.0396,0.033,0.0315,0.0306,0.0504,0.0447,0.0366,0.0366,0.0366,0.0367,0.0367,0.0367,0.0455,0.0489,0.0516,0.0635,0.0699,0.0818,0.0903,0.104,0.1168,0.1337,0.1418,0.1472,0.1278,0.0691,0.0274,0.0185,0.0087,0.0062,0.0027,0.014,0.0162,0.0184,0.0118,-0.0031,-0.0031,-0.0155,-0.0157,-0.0158]}],[{"header":{"parameterUnit":"m.s-1","parameterCategory":2,"la1":30.2991,"la2":30.254,"lo1":-89.0895,"lo2":-89.0444,"dy":0.0017,"dx":0.0017,"nx":28,"ny":28,"refTime":"2023-09-13T21:00:00:Z","depth":"2","parameterNumber":2,"parameterNumberName":"U-component_of_CURRENTS"},"data":[0,0,0,0,0,0,0,0,0,0,0,0,0,0,0,0,0,0,0,0,0,0,0,0,0,0,0,0,0,0,0,0,0,0,0,0,0,0,0,0,0,0,0,0,0,0,0,0,0,0,0,0,0,0,0,0,0,0,0.2,0.2002,0,0.2089,0.2089,0.209,0.209,0.209,0.2089,0.2089,0.2034,0.2033,0.2031,0,0,0,0,0,0,0,0,0,0,0,0,0,0.1923,0.1923,0.2,0.2002,0.2004,0.2089,0.2089,0.209,0.209,0.209,0.2089,0.2089,0.2034,0.2033,0.2031,0,0,0,0,0,0,0,0,0,0,0,0,0,0.1969,0.1923,0.2,0.2021,0.2025,0.2089,0.2089,0.209,0.209,0.209,0.2089,0.2089,0.2035,0.2033,0.2031,0.2029,0,0,0.2026,0.2025,0,0,0,0,0,0,0,0,0.1967,0.1971,0.2016,0.202,0.2024,0.2086,0.2043,0.2065,0.209,0.2055,0.2089,0.2089,0.2044,0.2042,0.2048,0.2026,0.2024,0.2025,0.2024,0.2023,0.2023,0,0,0,0,0,0,0,0.1963,0.1968,0.2026,0.2018,0.2023,0.2059,0.2063,0.2047,0.2041,0.2058,0.2061,0.2086,0.2044,0.205,0.2047,0.2023,0.2025,0.2024,0.2023,0.2022,0.2015,0.2016,0,0,0,0,0,0,0.1967,0.1964,0.2023,0.2029,0.2004,0.2061,0.2065,0.2059,0.2045,0.2046,0.2086,0.2086,0.2053,0.2049,0.2044,0.2051,0.2023,0.2022,0.2021,0.2014,0.2015,0.2016,0,0,0,0,0,0,0.1964,0.197,0.202,0.2008,0.2018,0.2063,0.2056,0.2061,0.2086,0.2069,0.2065,0.2109,0.2053,0.2047,0.204,0.2048,0.2021,0.2019,0.2013,0.2014,0.2016,0.2056,0,0,0,0,0,0,0.1961,0.1967,0.1993,0.2007,0.2019,0.206,0.2058,0.2064,0.2105,0.2106,0.2087,0.2081,0.2052,0.2043,0.2039,0.2045,0.2018,0.2012,0.2014,0.2015,0.2054,0.2059,0.2063,0,0,0,0,0,0.1957,0.1987,0.1992,0.2003,0.2042,0.2062,0.207,0.2095,0.2107,0.2115,0.2106,0.2082,0.2051,0.2043,0.2037,0.2043,0.2011,0.2013,0.2015,0.2052,0.2058,0.2063,0,0,0,0,0,0,0.1971,0.1991,0.1997,0.2033,0.205,0.2065,0.2101,0.2111,0.2115,0.2121,0.2092,0.2084,0.2086,0.2063,0.2055,0.2048,0.2028,0.2029,0.2058,0.2063,0.2068,0.2103,0.2016,0,0,0,0,0,0.1987,0.2004,0.2024,0.2051,0.2065,0.2086,0.2112,0.212,0.2123,0.2127,0.2112,0.2099,0.2089,0.2075,0.2064,0.2055,0.2065,0.2057,0.2062,0.2066,0.2092,0.212,0.2129,0.2023,0.2023,0.2023,0,0,0.2003,0.2018,0.2032,0.2057,0.2074,0.2089,0.2096,0.2132,0.2144,0.2118,0.213,0.2121,0.2095,0.2088,0.2086,0.2067,0.2099,0.2069,0.2072,0.2097,0.2123,0.2133,0.2143,0.2024,0.2024,0.2024,0,0,0.2022,0.205,0.2064,0.2078,0.2114,0.2123,0.2136,0.2155,0.2166,0.2178,0.2165,0.2174,0.2144,0.2135,0.2124,0.2153,0.2132,0.2135,0.2172,0.2198,0.2207,0.2216,0.2231,0.224,0.2124,0.2125,0.2125,0,0.2045,0.2055,0.2075,0.2087,0.211,0.2134,0.2147,0.2164,0.2178,0.2188,0.2186,0.2188,0.2175,0.2173,0.2186,0.2166,0.2169,0.2148,0.2205,0.2214,0.2222,0.2235,0.2245,0.2127,0.2127,0.2126,0.2126,0,0.2056,0.2079,0.2091,0.2103,0.2127,0.2147,0.2168,0.2189,0.221,0.2223,0.2246,0.2241,0.2243,0.2235,0.222,0.2258,0.2238,0.2217,0.2192,0.2235,0.2246,0.2256,0.213,0.2129,0.2128,0.2128,0,0,0.2058,0.2091,0.2097,0.2098,0.2138,0.2143,0.2179,0.2204,0.2225,0.2253,0.2279,0.2293,0.2309,0.2302,0.2286,0.2311,0.2373,0.2291,0.2291,0.2309,0.2421,0.224,0.2233,0.2352,0.2354,0.2356,0.2402,0,0.2058,0.2071,0.2098,0.2112,0.2115,0.2152,0.2173,0.2204,0.2236,0.2267,0.2298,0.232,0.2324,0.2331,0.2363,0.2375,0.2402,0.2362,0.2376,0.2377,0.2212,0.2239,0.2088,0.2102,0.2411,0.2413,0.2414,0,0.2058,0.2061,0.2075,0.2093,0.2101,0.2122,0.2158,0.2185,0.2244,0.2272,0.2322,0.2345,0.2406,0.2398,0.2468,0.2437,0.2449,0.2455,0.2456,0.2286,0.2213,0.2111,0.2107,0.243,0.2429,0.2428,0.2426,0,0.2022,0.2047,0.2053,0.2061,0.2089,0.211,0.2138,0.2191,0.2213,0.2294,0.232,0.2389,0.2428,0.2472,0.2498,0.2492,0.2555,0.254,0.2389,0.2377,0.2252,0.2222,0.2598,0.2598,0.2598,0.2597,0.2597,0,0.2006,0.2008,0.2038,0.2036,0.204,0.2083,0.2111,0.2151,0.2217,0.2247,0.2329,0.2358,0.2452,0.2487,0.2513,0.2468,0.2569,0.2411,0.2378,0.2256,0.2228,0.2517,0.2507,0.2599,0.2599,0.2598,0.2598,0,0.1967,0.1992,0.1984,0.2011,0.2023,0.203,0.2089,0.2107,0.2184,0.2232,0.2263,0.2358,0.2403,0.2448,0.2514,0.2458,0.2451,0.2407,0.2244,0.2189,0.2261,0.2253,0.2262,0.2256,0.2251,0.2247,0.2243,0,0.1948,0.1942,0.1954,0.195,0.1969,0.1993,0.2011,0.2086,0.2114,0.2215,0.223,0.2299,0.2287,0.229,0.2259,0.2234,0.2336,0.2041,0.1994,0.2259,0.2228,0.2228,0.2227,0.1864,0.1858,0.1853,0.1849,0,0.1892,0.1904,0.1895,0.1893,0.1907,0.1914,0.1957,0.1966,0.2057,0.2087,0.2147,0.2145,0.2135,0.2017,0.1933,0.1907,0.2029,0.1925,0.2276,0.1934,0.1877,0.1848,0.1862,0.1802,0.1807,0.181,0.1813,0.1815,0.1839,0.1829,0.1828,0.1826,0.1838,0.1839,0.1832,0.1845,0.1857,0.1855,0.196,0.1875,0.1861,0.1632,0.1579,0.1563,0.17,0.1634,0.1655,0.1681,0.1588,0.152,0.1363,0.1365,0.1367,0.1368,0.137,0,0.174,0.1763,0.1762,0.1751,0.174,0.1788,0.1792,0.1735,0.1689,0.1657,0.1642,0.1446,0.1293,0.1318,0.1211,0.1159,0.1211,0.1119,0.1206,0.1251,0.1292,0.1184,0.085,0.0848,0.0847,0.0845,0,0,0.1671,0.1662,0.1681,0.1654,0.1674,0.1647,0.1643,0.1521,0.1452,0.1293,0.1213,0.1197,0.1234,0.1015,0.0983,0.091,0.1079,0.0868,0.1286,0.1433,0.1472,0.1584,0.1465,0,0,0,0,0]},{"header":{"parameterUnit":"m.s-1","parameterCategory":2,"la1":30.2991,"la2":30.254,"lo1":-89.0895,"lo2":-89.0444,"dy":0.0017,"dx":0.0017,"nx":28,"ny":28,"refTime":"2023-09-13T21:00:00:Z","depth":"2","parameterNumber":3,"parameterNumberName":"V-component_of_CURRENTS"},"data":[0,0,0,0,0,0,0,0,0,0,0,0,0,0,0,0,0,0,0,0,0,0,0,0,0,0,0,0,0,0,0,0,0,0,0,0,0,0,0,0,0,0,0,0,0,0,0,0,0,0,0,0,0,0,0,0,0,0,-0.0183,-0.0183,0,-0.0185,-0.0185,-0.0186,-0.0199,-0.0199,-0.02,-0.02,-0.0252,-0.0253,-0.0255,0,0,0,0,0,0,0,0,0,0,0,0,0,-0.0205,-0.0205,-0.0183,-0.0183,-0.0183,-0.0185,-0.0185,-0.0186,-0.0199,-0.0199,-0.02,-0.02,-0.0252,-0.0253,-0.0255,0,0,0,0,0,0,0,0,0,0,0,0,0,-0.0201,-0.0205,-0.0183,-0.0189,-0.019,-0.0185,-0.0185,-0.0186,-0.0199,-0.0199,-0.02,-0.02,-0.0251,-0.0253,-0.0255,-0.0259,0,0,-0.026,-0.0261,0,0,0,0,0,0,0,0,-0.0201,-0.0201,-0.0188,-0.0189,-0.0189,-0.0191,-0.0212,-0.0212,-0.0199,-0.0197,-0.02,-0.02,-0.0236,-0.0239,-0.0239,-0.0261,-0.0264,-0.026,-0.0262,-0.0262,-0.0263,0,0,0,0,0,0,0,-0.0202,-0.0201,-0.0185,-0.0188,-0.0189,-0.0197,-0.0197,-0.0212,-0.0216,-0.0197,-0.0198,-0.0196,-0.0236,-0.0237,-0.0241,-0.0264,-0.026,-0.0262,-0.0263,-0.0264,-0.0286,-0.0286,0,0,0,0,0,0,-0.0198,-0.0201,-0.0185,-0.0185,-0.0195,-0.0196,-0.0196,-0.0191,-0.0215,-0.0218,-0.0196,-0.0197,-0.0234,-0.0239,-0.0243,-0.0223,-0.0262,-0.0264,-0.0265,-0.0287,-0.0286,-0.0286,0,0,0,0,0,0,-0.0198,-0.0196,-0.0185,-0.0192,-0.0191,-0.0195,-0.019,-0.0191,-0.0187,-0.0213,-0.0218,-0.019,-0.0235,-0.024,-0.0246,-0.0226,-0.0265,-0.0266,-0.0287,-0.0286,-0.0286,-0.02,0,0,0,0,0,0,-0.0199,-0.0196,-0.0201,-0.0192,-0.0191,-0.017,-0.0189,-0.0191,-0.0185,-0.0186,-0.0209,-0.0215,-0.0235,-0.0243,-0.0247,-0.0229,-0.0268,-0.0288,-0.0287,-0.0286,-0.0204,-0.0197,-0.0191,0,0,0,0,0,-0.02,-0.0193,-0.0201,-0.02,-0.0193,-0.0169,-0.0169,-0.0174,-0.0184,-0.0174,-0.0191,-0.0214,-0.0241,-0.0243,-0.0249,-0.0231,-0.0288,-0.0287,-0.0286,-0.0206,-0.0198,-0.0191,0,0,0,0,0,0,-0.0205,-0.0194,-0.0202,-0.0194,-0.018,-0.0171,-0.0164,-0.0168,-0.0172,-0.0174,-0.0205,-0.0211,-0.0207,-0.0235,-0.0237,-0.0237,-0.027,-0.027,-0.0207,-0.02,-0.0193,-0.018,-0.0269,0,0,0,0,0,-0.0209,-0.02,-0.0189,-0.0181,-0.0172,-0.0168,-0.0163,-0.016,-0.0159,-0.0161,-0.0176,-0.0196,-0.0208,-0.0216,-0.023,-0.023,-0.0262,-0.0225,-0.0218,-0.0212,-0.0207,-0.0252,-0.0249,-0.0282,-0.0282,-0.0282,0,0,-0.0211,-0.0201,-0.02,-0.0182,-0.0172,-0.0149,-0.0165,-0.0142,-0.0127,-0.0167,-0.0155,-0.0171,-0.0203,-0.0197,-0.02,-0.0217,-0.0215,-0.0211,-0.0206,-0.0203,-0.0251,-0.0247,-0.0245,-0.0281,-0.0282,-0.0282,0,0,-0.0191,-0.0196,-0.0176,-0.016,-0.0136,-0.0132,-0.0121,-0.0104,-0.0101,-0.009,-0.0114,-0.0114,-0.0138,-0.0147,-0.0159,-0.0128,-0.0178,-0.0141,-0.0097,-0.0141,-0.0138,-0.0137,-0.015,-0.015,-0.014,-0.0139,-0.0139,0,-0.0197,-0.0171,-0.0166,-0.0135,-0.0122,-0.012,-0.0091,-0.0082,-0.0071,-0.0071,-0.0076,-0.01,-0.011,-0.0115,-0.0092,-0.011,-0.0143,-0.012,-0.0131,-0.0131,-0.013,-0.0145,-0.0147,-0.0135,-0.0136,-0.0136,-0.0136,0,-0.0157,-0.0137,-0.0117,-0.0085,-0.0069,-0.0039,-0.0025,-0.0012,-0.0012,-0.0012,-0.001,-0.0023,-0.0041,-0.0039,-0.0049,-0.0051,-0.0076,-0.0115,-0.0147,-0.0122,-0.0139,-0.0142,-0.0129,-0.0131,-0.0132,-0.0133,0,0,-0.0165,-0.0105,-0.0099,-0.0079,-0.004,-0.0023,0.0008,0.0026,0.0031,0.0042,0.0043,0.0052,0.0038,0.0024,0.0005,-0.0015,-0.0013,-0.0054,-0.0058,-0.0059,-0.0096,-0.0075,-0.0076,-0.0066,-0.0067,-0.0067,-0.01,0,-0.0137,-0.0077,-0.0056,-0.0009,0.0022,0.0034,0.0054,0.0069,0.0072,0.0074,0.0066,0.0062,0.006,0.0055,0.0038,-0.0003,-0.0022,0.0001,-0.0128,-0.0131,-0.011,-0.008,-0.0066,-0.0092,-0.0103,-0.0104,-0.0104,0,-0.0107,-0.007,-0.0017,0.0025,0.0037,0.0058,0.0077,0.0097,0.0102,0.0106,0.0103,0.0085,0.0091,0.0067,0.0017,0.0024,-0.0022,-0.0058,-0.0062,-0.0075,-0.0116,-0.0126,-0.0098,-0.011,-0.011,-0.0109,-0.0109,0,-0.0113,-0.0049,-0.001,0.0008,0.0058,0.0073,0.0088,0.0102,0.0119,0.0122,0.0136,0.0109,0.0113,0.0046,0.0021,-0.0001,-0.0046,-0.0098,-0.0125,-0.0123,-0.0152,-0.0152,-0.0155,-0.0155,-0.0155,-0.0155,-0.0155,0,-0.0092,-0.0062,-0.0012,0.0011,0.0043,0.0072,0.0095,0.011,0.0129,0.016,0.015,0.018,0.0104,0.0082,0.0023,-0.0029,-0.0047,-0.0103,-0.0131,-0.0118,-0.0115,-0.0173,-0.0175,-0.0156,-0.0156,-0.0156,-0.0155,0,-0.0095,-0.0059,-0.0013,0.0035,0.0048,0.0069,0.0112,0.0133,0.0153,0.0196,0.0206,0.0227,0.0221,0.0153,0.0064,-0.0008,-0.0078,-0.0101,-0.0054,-0.0075,-0.0133,-0.013,-0.0157,-0.0156,-0.0156,-0.0156,-0.0155,0,-0.0078,-0.0057,-0.0004,0.0024,0.005,0.0084,0.0115,0.0143,0.0182,0.0246,0.0282,0.0292,0.0339,0.0241,0.0115,0.0004,-0.0026,-0.0083,-0.0124,-0.0109,-0.0134,-0.0132,-0.0129,-0.0123,-0.0123,-0.0122,-0.0122,0,-0.0055,-0.0048,-0.0016,0.004,0.008,0.0129,0.0181,0.0219,0.0273,0.0346,0.0456,0.0495,0.041,0.0331,0.0166,0.0078,-0.0065,-0.0079,-0.0092,-0.0116,-0.0078,-0.0103,-0.0101,-0.0118,-0.0119,-0.0119,-0.0119,-0.0119,-0.0035,-0.0025,0.0013,0.0064,0.0114,0.0193,0.0246,0.0339,0.0445,0.0563,0.0578,0.064,0.0485,0.0304,0.0174,0.0004,-0.0015,-0.0105,-0.0107,-0.0109,-0.009,-0.0053,-0.0084,-0.0084,-0.0084,-0.0084,-0.0084,0,0.0016,0.0008,0.0043,0.0115,0.0182,0.02,0.0307,0.0395,0.0568,0.0643,0.0747,0.0628,0.053,0.036,0.0117,-0.0034,-0.0061,-0.0081,-0.0089,-0.0092,-0.0095,-0.0075,-0.0065,-0.0065,-0.0065,-0.0065,0,0,0.0056,0.0072,0.0073,0.0174,0.0221,0.0326,0.0398,0.0554,0.0641,0.0765,0.0781,0.0758,0.0551,0.0379,0.0194,0.0069,0.0018,0.0039,0.0035,0.0044,0.0044,-0.0101,-0.0073,0,0,0,0,0]}],[{"header":{"parameterUnit":"m.s-1","parameterCategory":2,"la1":30.2991,"la2":30.254,"lo1":-89.0895,"lo2":-89.0444,"dy":0.0017,"dx":0.0017,"nx":28,"ny":28,"refTime":"2023-09-13T21:00:00:Z","depth":"4","parameterNumber":2,"parameterNumberName":"U-component_of_CURRENTS"},"data":[0,0,0,0,0,0,0,0,0,0,0,0,0,0,0,0,0,0,0,0,0,0,0,0,0,0,0,0,0,0,0,0,0,0,0,0,0,0,0,0,0,0,0,0,0,0,0,0,0,0,0,0,0,0,0,0,0,0,0.0402,0.0403,0,0.0356,0.0354,0.0353,0.0325,0.0326,0.0327,0.0328,0.0381,0.0381,0.0382,0,0,0,0,0,0,0,0,0,0,0,0,0,0.0404,0.0404,0.0402,0.0403,0.0403,0.0356,0.0354,0.0353,0.0325,0.0326,0.0327,0.0328,0.0381,0.0381,0.0382,0,0,0,0,0,0,0,0,0,0,0,0,0,0.0375,0.0404,0.0402,0.0391,0.0391,0.0356,0.0354,0.0352,0.0325,0.0326,0.0327,0.0328,0.038,0.0381,0.0382,0.0363,0,0,0.0385,0.0385,0,0,0,0,0,0,0,0,0.0377,0.0374,0.0393,0.0392,0.0391,0.0357,0.0375,0.0364,0.0324,0.0339,0.0328,0.0329,0.0388,0.0388,0.036,0.0365,0.0368,0.0385,0.0386,0.0386,0.0386,0,0,0,0,0,0,0,0.0379,0.0375,0.0373,0.0393,0.0392,0.0368,0.0365,0.0371,0.0351,0.0338,0.0338,0.0349,0.0387,0.0359,0.0362,0.0368,0.0385,0.0386,0.0387,0.0387,0.0506,0.0508,0,0,0,0,0,0,0.0408,0.0378,0.0375,0.0373,0.0399,0.0368,0.0364,0.0358,0.0348,0.035,0.0348,0.0348,0.0357,0.0361,0.0364,0.0462,0.0386,0.0387,0.0388,0.0503,0.0507,0.0509,0,0,0,0,0,0,0.0407,0.0407,0.0377,0.0384,0.0379,0.0368,0.0361,0.0357,0.0356,0.0357,0.0359,0.0357,0.0358,0.0363,0.0424,0.046,0.0387,0.0388,0.05,0.0504,0.0508,0.0581,0,0,0,0,0,0,0.0407,0.0407,0.0405,0.0385,0.0381,0.0377,0.0361,0.0355,0.0365,0.0364,0.0365,0.0369,0.0359,0.0423,0.0425,0.046,0.0389,0.0497,0.0502,0.0507,0.0575,0.0587,0.0597,0,0,0,0,0,0.0407,0.0408,0.0405,0.0405,0.0381,0.0378,0.0372,0.0361,0.0365,0.0364,0.0394,0.0371,0.0455,0.0426,0.0427,0.0463,0.0495,0.0501,0.0506,0.057,0.0584,0.0596,0,0,0,0,0,0,0.0418,0.0406,0.0402,0.0401,0.0402,0.0379,0.0374,0.0377,0.0389,0.04,0.0402,0.0409,0.0475,0.0466,0.0434,0.0516,0.0471,0.0478,0.0519,0.0532,0.0543,0.0522,0.039,0,0,0,0,0,0.042,0.0408,0.0407,0.0408,0.0407,0.0394,0.0391,0.0392,0.0406,0.041,0.0428,0.0455,0.0491,0.0512,0.0533,0.0574,0.0552,0.0601,0.0612,0.0621,0.0609,0.0603,0.0611,0.0529,0.0528,0.0528,0,0,0.042,0.0419,0.041,0.0409,0.0397,0.0397,0.0392,0.0399,0.0415,0.0418,0.0456,0.0493,0.0514,0.0568,0.0595,0.0569,0.0644,0.0628,0.0636,0.0618,0.061,0.0617,0.0624,0.0532,0.0532,0.0531,0,0,0.0423,0.0418,0.0407,0.0413,0.0421,0.0412,0.0427,0.043,0.0443,0.0497,0.0511,0.0571,0.0621,0.0637,0.0654,0.0735,0.0702,0.0759,0.0791,0.0787,0.0792,0.0797,0.0815,0.082,0.0761,0.0761,0.0761,0,0.0426,0.0414,0.0408,0.0415,0.0416,0.0427,0.0425,0.0441,0.0476,0.0507,0.0528,0.0627,0.0646,0.0706,0.0746,0.0755,0.0758,0.0737,0.0797,0.0801,0.0804,0.082,0.0825,0.0765,0.0765,0.0764,0.0764,0,0.0421,0.0419,0.0419,0.0417,0.0421,0.0425,0.0451,0.0493,0.0531,0.0553,0.0645,0.0687,0.0749,0.0774,0.079,0.0838,0.0839,0.0811,0.0754,0.0816,0.0831,0.0835,0.0771,0.077,0.0768,0.0767,0,0,0.0402,0.0405,0.0411,0.0411,0.0421,0.0429,0.0475,0.0511,0.0558,0.0627,0.0681,0.0772,0.0813,0.0835,0.0866,0.0869,0.0916,0.0863,0.0861,0.0864,0.0935,0.0861,0.0857,0.0903,0.0904,0.0904,0.0948,0,0.0392,0.0396,0.0401,0.041,0.0402,0.0442,0.0481,0.0534,0.059,0.0656,0.0724,0.0788,0.083,0.0879,0.0898,0.0918,0.0925,0.0908,0.0888,0.0888,0.0799,0.0857,0.0905,0.095,0.0951,0.0951,0.0952,0,0.0383,0.0381,0.0379,0.0403,0.0406,0.0429,0.0497,0.0534,0.063,0.0687,0.0775,0.0824,0.0902,0.0894,0.0963,0.0961,0.0956,0.0948,0.0949,0.0845,0.0818,0.0869,0.0957,0.0957,0.0956,0.0956,0.0956,0,0.0361,0.0374,0.0368,0.0375,0.0405,0.0442,0.0468,0.0552,0.0606,0.0701,0.0768,0.0852,0.0918,0.0933,0.0978,0.0978,0.1003,0.0991,0.0913,0.0909,0.0927,0.0921,0.0983,0.0982,0.0982,0.0982,0.0982,0,0.0342,0.0344,0.037,0.0371,0.0398,0.0426,0.0485,0.0545,0.0633,0.0692,0.0784,0.0852,0.0928,0.097,0.0979,0.0977,0.1016,0.0922,0.0909,0.0965,0.0963,0.0931,0.0925,0.0984,0.0984,0.0983,0.0983,0,0.0312,0.033,0.0331,0.0366,0.0386,0.041,0.0493,0.0543,0.0636,0.0716,0.0754,0.0877,0.0942,0.0988,0.1004,0.0982,0.0963,0.0928,0.1009,0.0999,0.0879,0.0876,0.0873,0.0871,0.0869,0.0867,0.0866,0,0.0289,0.0284,0.0322,0.0337,0.0354,0.0403,0.0444,0.0539,0.058,0.0725,0.0747,0.0855,0.0925,0.0925,0.0952,0.0952,0.0919,0.0906,0.0877,0.0877,0.0865,0.0865,0.0866,0.0862,0.0862,0.0861,0.0861,0,0.0234,0.026,0.027,0.0293,0.0336,0.0382,0.0432,0.0472,0.0577,0.0671,0.0746,0.0796,0.0852,0.0887,0.0882,0.0871,0.0922,0.0885,0.0889,0.0861,0.0864,0.0854,0.0856,0.0854,0.0855,0.0855,0.0856,0,0.0203,0.0203,0.0229,0.0256,0.0299,0.0338,0.0382,0.0435,0.0505,0.0646,0.066,0.0769,0.0845,0.0842,0.0837,0.0829,0.0817,0.0774,0.0784,0.0792,0.074,0.073,0.0668,0,0,0,0,0,0.0166,0.0171,0.0183,0.0222,0.0261,0.0289,0.0362,0.0407,0.0508,0.054,0.0605,0.0653,0.0703,0.0745,0.0722,0.0781,0.0802,0.0745,0.0754,0.0814,0.0823,0.0766,0,0,0,0,0,0,0.015,0.0156,0.017,0.0193,0.0203,0.0252,0.0298,0.0366,0.0382,0.0483,0.0514,0.0586,0.0639,0.0711,0.0703,0.0711,0.0694,0.0796,0.0793,0.081,0.0817,0.0824,0.0768,0,0,0,0,0]},{"header":{"parameterUnit":"m.s-1","parameterCategory":2,"la1":30.2991,"la2":30.254,"lo1":-89.0895,"lo2":-89.0444,"dy":0.0017,"dx":0.0017,"nx":28,"ny":28,"refTime":"2023-09-13T21:00:00:Z","depth":"4","parameterNumber":3,"parameterNumberName":"V-component_of_CURRENTS"},"data":[0,0,0,0,0,0,0,0,0,0,0,0,0,0,0,0,0,0,0,0,0,0,0,0,0,0,0,0,0,0,0,0,0,0,0,0,0,0,0,0,0,0,0,0,0,0,0,0,0,0,0,0,0,0,0,0,0,0,0.0288,0.0289,0,0.0341,0.0342,0.0342,0.0379,0.0379,0.038,0.038,0.0425,0.0426,0.0427,0,0,0,0,0,0,0,0,0,0,0,0,0,0.0226,0.0227,0.0288,0.0289,0.0289,0.0341,0.0342,0.0342,0.0379,0.0379,0.038,0.038,0.0425,0.0426,0.0427,0,0,0,0,0,0,0,0,0,0,0,0,0,0.0263,0.0227,0.0288,0.0314,0.0317,0.0341,0.0342,0.0343,0.0379,0.0379,0.038,0.038,0.0425,0.0426,0.0427,0.0428,0,0,0.0432,0.0432,0,0,0,0,0,0,0,0,0.0261,0.0266,0.0309,0.0312,0.0315,0.0354,0.0337,0.0371,0.0379,0.0355,0.038,0.038,0.04,0.0404,0.0413,0.043,0.0432,0.0432,0.0433,0.0433,0.0434,0,0,0,0,0,0,0,0.0259,0.0264,0.0309,0.031,0.0314,0.0325,0.0331,0.0343,0.0375,0.0357,0.036,0.0366,0.0402,0.0412,0.0414,0.0433,0.0432,0.0433,0.0434,0.0435,0.0434,0.0433,0,0,0,0,0,0,0.0251,0.0261,0.0307,0.031,0.0289,0.0326,0.0333,0.0341,0.0375,0.038,0.0366,0.0367,0.0409,0.0413,0.0416,0.0413,0.0433,0.0435,0.0436,0.0435,0.0434,0.0433,0,0,0,0,0,0,0.025,0.0255,0.0305,0.0287,0.0294,0.0327,0.0336,0.0342,0.0362,0.0381,0.0387,0.0381,0.0409,0.0414,0.0431,0.0416,0.0435,0.0437,0.0436,0.0435,0.0434,0.0411,0,0,0,0,0,0,0.0248,0.0254,0.026,0.0286,0.0295,0.0326,0.0336,0.0343,0.0364,0.0367,0.0396,0.04,0.041,0.0429,0.0433,0.0418,0.0438,0.0437,0.0435,0.0434,0.0413,0.0409,0.0406,0,0,0,0,0,0.0246,0.0262,0.026,0.0266,0.0301,0.0327,0.0332,0.0356,0.0364,0.0375,0.039,0.0399,0.042,0.043,0.0434,0.042,0.0438,0.0436,0.0434,0.0415,0.041,0.0406,0,0,0,0,0,0,0.0238,0.0267,0.0266,0.0289,0.0305,0.0333,0.035,0.036,0.0381,0.0387,0.0401,0.0406,0.0411,0.0418,0.0429,0.0412,0.0426,0.0424,0.0409,0.0405,0.0402,0.0401,0.0439,0,0,0,0,0,0.0236,0.0259,0.0276,0.0294,0.0303,0.0324,0.0338,0.0352,0.0372,0.0383,0.04,0.0407,0.0404,0.0409,0.0415,0.0416,0.0402,0.0404,0.04,0.0397,0.0398,0.0353,0.0346,0.0427,0.0427,0.0427,0,0,0.0236,0.0257,0.0267,0.0294,0.031,0.0323,0.0334,0.0361,0.0368,0.0384,0.0404,0.0403,0.0402,0.0398,0.04,0.0405,0.0367,0.0395,0.0393,0.0395,0.0351,0.0343,0.0336,0.0425,0.0426,0.0426,0,0,0.025,0.0266,0.0285,0.0298,0.0323,0.0334,0.0341,0.0367,0.0378,0.0392,0.0392,0.0383,0.04,0.0384,0.0377,0.0358,0.0351,0.0356,0.0339,0.0295,0.0288,0.0282,0.0254,0.0245,0.0352,0.0352,0.0352,0,0.0247,0.0274,0.0293,0.0311,0.0322,0.0337,0.035,0.0359,0.0387,0.0387,0.0399,0.0386,0.0387,0.0357,0.0346,0.035,0.033,0.0357,0.0291,0.0284,0.0278,0.0251,0.0241,0.0351,0.0351,0.0351,0.0351,0,0.0268,0.0288,0.0303,0.0325,0.0336,0.0357,0.0364,0.0375,0.0386,0.0387,0.0375,0.0368,0.0357,0.0344,0.0342,0.0292,0.0293,0.0293,0.0302,0.0269,0.0242,0.0233,0.0349,0.0349,0.035,0.035,0,0,0.0264,0.0309,0.0313,0.033,0.0348,0.0366,0.0367,0.0372,0.0372,0.0375,0.0364,0.0339,0.0329,0.032,0.0304,0.0263,0.0199,0.0258,0.0257,0.0233,0.0108,0.0122,0.0114,0.0184,0.0183,0.0181,0.0107,0,0.0274,0.0313,0.0326,0.0355,0.0374,0.0381,0.0381,0.0383,0.038,0.0374,0.0343,0.0332,0.032,0.031,0.0263,0.022,0.0174,0.022,0.0143,0.0141,0.0159,0.0103,0.0176,0.01,0.0098,0.0096,0.0095,0,0.0283,0.0313,0.0345,0.038,0.0387,0.0401,0.0407,0.0412,0.0388,0.0381,0.0348,0.033,0.0272,0.027,0.0167,0.0196,0.0149,0.0113,0.0109,0.0125,0.0137,0.014,0.0078,0.0079,0.0081,0.0082,0.0083,0,0.0282,0.0326,0.0358,0.037,0.0403,0.0416,0.0429,0.0415,0.0421,0.0385,0.0376,0.0308,0.0282,0.0204,0.0136,0.0143,0.0027,0.0029,-0.0005,-0.0003,0.0019,0.0027,-0.0053,-0.0053,-0.0052,-0.0052,-0.0052,0,0.0291,0.0318,0.0368,0.0388,0.0422,0.0435,0.046,0.0451,0.044,0.0433,0.0385,0.0355,0.0263,0.0193,0.0124,0.0033,0.0014,-0.0019,-0.003,0.0012,0.0019,0.0013,0.0021,-0.0055,-0.0054,-0.0054,-0.0053,0,0.0287,0.0319,0.0364,0.041,0.0428,0.0454,0.0497,0.0504,0.0489,0.0474,0.0464,0.0384,0.0287,0.0201,0.0075,0.0028,-0.0062,-0.0088,-0.003,-0.0034,-0.0062,-0.0053,-0.0145,-0.0146,-0.0146,-0.0146,-0.0146,0,0.029,0.0313,0.0381,0.0407,0.0436,0.0483,0.0506,0.0523,0.0522,0.0488,0.0466,0.0386,0.0324,0.0155,0.0063,-0.0069,-0.008,-0.0122,-0.0105,-0.0074,-0.0076,-0.0067,-0.0058,-0.0147,-0.0147,-0.0147,-0.0147,0,0.0288,0.0316,0.0354,0.0409,0.0452,0.0501,0.0532,0.0535,0.0537,0.0534,0.0459,0.0378,0.0271,0.0147,0.0053,-0.0042,-0.0095,-0.0125,-0.0125,-0.011,-0.0077,-0.0076,-0.0068,-0.0148,-0.0148,-0.0148,-0.0148,0,0.0283,0.0307,0.0357,0.0405,0.0461,0.0492,0.0518,0.0517,0.0525,0.0485,0.0459,0.0354,0.0297,0.016,0.0067,-0.0018,-0.004,-0.0063,-0.0066,-0.0066,-0.0014,0.0041,-0.0018,0,0,0,0,0,0.0273,0.0298,0.0342,0.0397,0.0452,0.0479,0.0518,0.0533,0.0539,0.0488,0.0476,0.0378,0.0238,0.017,0.0084,0.006,-0.0054,-0.0042,-0.0082,-0.0153,-0.0152,-0.0103,0,0,0,0,0,0,0.0263,0.0306,0.0334,0.0385,0.0411,0.0465,0.0489,0.0489,0.046,0.0451,0.0372,0.0355,0.0213,0.0279,0.0078,0.0054,0.0018,-0.0102,-0.0104,-0.0154,-0.0153,-0.0152,-0.0101,0,0,0,0,0]}]]